Voltar ao catálogo

STARLINK-36933

AtivoComunicaçõesVLEO
NORAD 69196·PAYLOAD·🇺🇸 United States

Lançado May 25, 2026 de Cape Canaveral Space Force Station

Loading…

Próximas Passagens (próximas 24 horas)

TLE

AtualizadoSource: CelesTrak SupGP

Época: Sep 15, 2026, 03:20 UTC

1 69196C 26114Q   26258.13937500  .00065885  00000+0  19471-2 0  2589
2 69196  53.1568 138.8157 0001035  80.1757 244.1202 15.34350487    17

Acompanhe STARLINK-36933 em tempo real com AllMySat

Download on the App Store